星链-31415 (STARLINK-31415 )

导读

STARLINK-31415是美国太空探索技术公司星链星座的组成卫星,于2024年4月5日发射升空,属于星链低轨互联网星座的扩容卫星。星链星座计划搭建全球覆盖的卫星互联网网络,该卫星入轨后服务全球网络覆盖,为偏远地区等提供互联网接入服务,也可满足特殊场景的通信需求。

Basic Information
目录编号:
59419
目录名称:
STARLINK-31415
国际标识:
2024-064X
轨道中心:
EARTH
卫星名称:
星链-31415
卫星全名:
星链-31415 (STARLINK-31415 )
卫星状态:
在轨 (已飞行889 天)
发射日期:
2024-04-05 UTC
国别 :
美国 (US)
星等 :
--
This satellite is enrolled in the Space Conjunction Data Service (SCDS) and the current flight risk assessment level is: High Risk
Orbit Information
数据来源 国际轨道数据 AOE轨道数据
星历时间 2026-09-11T20:50:05+0800
8小时前
查看轨道信息
2026-09-06T21:00:00+0800
5天前
查看轨道信息
半长轴 6861.187km 6861.193km
偏心率 0.0001417 0.0001965
轨道倾角 43.004° 43.004°
近地点辐角 274.468° 247.627°
升交点赤经 87.025° 115.224°
平近点角 85.601° 341.727°
近地点 482.077km 481.707km
远地点 484.023km 484.405km
周期 94.267分钟 94.267分钟
每日圈数 15.2758 15.275778
Detailed Information
固有亮度:
5
最大亮度:
0.3
卫星平台:
Starlink v2.0 mini
覆盖范围:
全球
运营商:
太空探索技术公司
运营商所在国:
美国
制造商(研发单位):
太空探索技术公司
制造商所在国:
美国
使用方式:
暂无
Satellite Introduction
星链(Starlink)计划是由太空探索技术公司(SpaceX)提出的一个巨型低轨卫星互联网星座项目,计划在2019年至2024年间在太空搭建由约1.2万颗卫星组成的“星链”网络,其中1584颗将部署在地球上空550千米处的近地轨道,并从2020年开始工作。该卫星仍在工作。
2D Orbit Map
3D Orbit Map
Orbit Altitude Analysis Chart
Orbit Inclination Analysis Chart
Orbit Comprehensive Analysis Chart
View Comprehensive Chart
Conjunction Data List
Event ID Objects TCA Miss Dist (km) Collision Risk Probability Collision Risk Index (CRI) Action
CDM_260913-200304-378405-941922
SNUGLITE (43784)
2026-09-13T
20:03:36+0000
0.013 km
极近距离
1.696139E-3 极高风险 1
CDM_260913-033305-941906-686421
2026-09-13T
03:33:00+0000
0.240 km
中距离
4.793684E-4 高风险 0.89
CDM_260914-052305-941906-359121
2026-09-14T
05:23:53+0000
0.391 km
远距离
2.386535E-4 高风险 0.83
CDM_260912-135305-307005-941921
2026-09-12T
13:53:28+0000
0.906 km
远距离
2.252628E-5 中风险 0.62
CDM_260912-172105-941906-686421
2026-09-12T
17:21:00+0000
1.056 km
极远距离
1.215486E-5 中风险 0.57
CDM_260912-185505-941906-686421
2026-09-12T
18:55:09+0000
1.078 km
极远距离
1.133471E-5 中风险 0.56
CDM_260914-034905-941906-359121
2026-09-14T
03:49:44+0000
1.475 km
极远距离
4.547252E-6 低风险 0.48
CDM_260914-065805-941906-359121
2026-09-14T
06:58:03+0000
1.675 km
极远距离
3.068567E-6 低风险 0.45
CDM_260913-015805-941906-686421
2026-09-13T
01:58:50+0000
1.721 km
极远距离
2.467315E-6 低风险 0.43
CDM_260912-164005-941906-261222
2026-09-12T
16:40:07+0000
2.388 km
极远距离
1.690991E-6 低风险 0.4
Miss Distance Evolution Trend with All Objects
Collision Probability Evolution Trend with All Objects